When you browse on this site, cookies collect data to enhance your experience and personalize the content and advertising you see.
Visit our Privacy Policy to learn more. By continuing to use the site, you agree to this use of cookies and data.
  • In France
  • List of Countries
  • For 7 days
  • Water Temperature
  • Weather Map
  • Weather Widgets
  • user-avatar
    Login

    Hourly Weather Bansko

    Today, 11 December, Wednesday

    Time Temperature Precipitation Wind Pressure Humidity
    00:00 +6°C° 0 mm 2 mps 717 mmHg 86%
    01:00 +5°C° 0 mm 2 mps 717 mmHg 87%
    02:00 +5°C° 0 mm 2 mps 718 mmHg 86%
    03:00 +4°C° 0 mm 2 mps 718 mmHg 86%
    04:00 +4°C° 0 mm 2 mps 718 mmHg 86%
    05:00 +4°C° 0 mm 2 mps 717 mmHg 86%
    06:00 +4°C° 0 mm 2 mps 717 mmHg 86%
    07:00 +4°C° 0 mm 2 mps 718 mmHg 87%
    08:00 +4°C° 0 mm 2 mps 718 mmHg 85%
    09:00 +5°C° 0 mm 2 mps 718 mmHg 82%
    10:00 +6°C° 0 mm 2 mps 719 mmHg 80%
    11:00 +6°C° 0 mm 2 mps 719 mmHg 77%
    12:00 +6°C° 0.3 mm 2 mps 718 mmHg 80%
    13:00 +6°C° 0.3 mm 2 mps 718 mmHg 82%
    14:00 +6°C° 0.3 mm 2 mps 718 mmHg 85%
    15:00 +6°C° 0.2 mm 2 mps 717 mmHg 88%
    16:00 +5°C° 0.2 mm 2 mps 717 mmHg 90%
    17:00 +6°C° 0.2 mm 1 mps 717 mmHg 93%
    18:00 +6°C° 0.1 mm 1 mps 717 mmHg 94%
    19:00 +5°C° 0.1 mm 1 mps 717 mmHg 94%
    20:00 +5°C° 0.1 mm 1 mps 717 mmHg 95%
    21:00 +5°C° 0.1 mm 1 mps 717 mmHg 95%
    22:00 +5°C° 0.1 mm 1 mps 717 mmHg 95%
    23:00 +5°C° 0.1 mm 1 mps 716 mmHg 95%

    Tomorrow, 12 December, Thursday

    Time Temperature Precipitation Wind Pressure Humidity
    00:00 +5°C° 0 mm 1 mps 716 mmHg 95%
    01:00 +5°C° 0 mm 1 mps 716 mmHg 94%
    02:00 +5°C° 0 mm 1 mps 715 mmHg 94%
    03:00 +5°C° 0 mm 1 mps 715 mmHg 94%
    04:00 +5°C° 0 mm 1 mps 714 mmHg 93%
    05:00 +5°C° 0 mm 1 mps 714 mmHg 93%
    06:00 +5°C° 0 mm 1 mps 714 mmHg 92%
    07:00 +5°C° 0 mm 1 mps 714 mmHg 92%
    08:00 +5°C° 0 mm 1 mps 714 mmHg 92%
    09:00 +6°C° 0 mm 1 mps 714 mmHg 88%
    10:00 +7°C° 0 mm 1 mps 714 mmHg 85%
    11:00 +8°C° 0 mm 1 mps 714 mmHg 82%
    12:00 +8°C° 0.3 mm 1 mps 713 mmHg 84%
    13:00 +8°C° 0.3 mm 1 mps 713 mmHg 86%
    14:00 +8°C° 0.3 mm 1 mps 713 mmHg 88%
    15:00 +7°C° 0.3 mm 0 mps 712 mmHg 90%
    16:00 +7°C° 0.3 mm 0 mps 712 mmHg 93%
    17:00 +6°C° 0.3 mm 0 mps 712 mmHg 95%
    18:00 +6°C° 0.1 mm 0 mps 712 mmHg 95%
    19:00 +6°C° 0.1 mm 0 mps 712 mmHg 96%
    20:00 +7°C° 0.1 mm 1 mps 712 mmHg 96%
    21:00 +7°C° 0.1 mm 1 mps 712 mmHg 96%
    22:00 +7°C° 0.1 mm 1 mps 712 mmHg 96%
    23:00 +7°C° 0.1 mm 1 mps 711 mmHg 96%

    Day after tomorrow, 13 December, Friday

    Time Temperature Precipitation Wind Pressure Humidity
    00:00 +7°C° 0.2 mm 1 mps 711 mmHg 96%
    01:00 +7°C° 0.2 mm 1 mps 711 mmHg 96%
    02:00 +7°C° 0.2 mm 1 mps 711 mmHg 96%
    03:00 +7°C° 0.1 mm 1 mps 710 mmHg 96%
    04:00 +7°C° 0.1 mm 1 mps 710 mmHg 96%
    05:00 +7°C° 0.1 mm 1 mps 710 mmHg 96%
    06:00 +7°C° 0.1 mm 1 mps 710 mmHg 95%
    07:00 +7°C° 0.1 mm 1 mps 710 mmHg 95%
    08:00 +7°C° 0.1 mm 1 mps 710 mmHg 95%
    09:00 +8°C° 0 mm 1 mps 709 mmHg 92%
    10:00 +7°C° 0 mm 2 mps 709 mmHg 88%
    11:00 +8°C° 0 mm 2 mps 709 mmHg 85%
    12:00 +8°C° 0.2 mm 2 mps 709 mmHg 87%
    13:00 +8°C° 0.2 mm 2 mps 708 mmHg 88%
    14:00 +8°C° 0.2 mm 2 mps 707 mmHg 89%
    15:00 +7°C° 0.1 mm 2 mps 707 mmHg 90%
    16:00 +7°C° 0.1 mm 2 mps 707 mmHg 90%
    17:00 +6°C° 0.1 mm 2 mps 707 mmHg 91%
    18:00 +6°C° 0 mm 2 mps 707 mmHg 90%
    19:00 +5°C° 0 mm 2 mps 707 mmHg 89%
    20:00 +5°C° 0 mm 2 mps 707 mmHg 88%
    21:00 +5°C° 0 mm 2 mps 706 mmHg 88%
    22:00 +4°C° 0 mm 2 mps 706 mmHg 89%
    23:00 +4°C° 0 mm 2 mps 706 mmHg 89%

    14 December, Saturday

    Time Temperature Precipitation Wind Pressure Humidity
    00:00 +4°C° 0 mm 2 mps 706 mmHg 89%
    01:00 +4°C° 0 mm 2 mps 706 mmHg 88%
    02:00 +4°C° 0 mm 2 mps 706 mmHg 88%
    03:00 +4°C° 0 mm 2 mps 706 mmHg 87%
    04:00 +4°C° 0 mm 2 mps 706 mmHg 86%
    05:00 +4°C° 0 mm 2 mps 705 mmHg 85%
    06:00 +4°C° 0 mm 2 mps 706 mmHg 86%
    07:00 +4°C° 0 mm 2 mps 706 mmHg 86%
    08:00 +4°C° 0 mm 2 mps 707 mmHg 86%
    09:00 +7°C° 0 mm 1 mps 707 mmHg 82%
    10:00 +8°C° 0 mm 1 mps 708 mmHg 78%
    11:00 +10°C° 0 mm 1 mps 708 mmHg 74%
    12:00 +10°C° 0 mm 1 mps 709 mmHg 74%
    13:00 +11°C° 0 mm 1 mps 709 mmHg 73%
    14:00 +11°C° 0 mm 1 mps 709 mmHg 73%
    15:00 +10°C° 0 mm 1 mps 710 mmHg 76%
    16:00 +9°C° 0 mm 1 mps 711 mmHg 80%
    17:00 +8°C° 0 mm 1 mps 712 mmHg 84%
    18:00 +8°C° 0.7 mm 1 mps 713 mmHg 86%
    19:00 +8°C° 0.7 mm 1 mps 714 mmHg 88%
    20:00 +8°C° 0.7 mm 1 mps 715 mmHg 90%
    21:00 +8°C° 1.2 mm 1 mps 716 mmHg 92%
    22:00 +8°C° 1.2 mm 1 mps 717 mmHg 93%
    23:00 +8°C° 1.2 mm 1 mps 717 mmHg 94%

    15 December, Sunday

    Time Temperature Precipitation Wind Pressure Humidity
    00:00 +7°C° 0.2 mm 0 mps 718 mmHg 93%
    01:00 +7°C° 0.2 mm 0 mps 718 mmHg 93%
    02:00 +7°C° 0.2 mm 0 mps 719 mmHg 92%
    03:00 +7°C° 0 mm 0 mps 719 mmHg 92%
    04:00 +7°C° 0 mm 0 mps 719 mmHg 92%
    05:00 +7°C° 0 mm 0 mps 720 mmHg 92%
    06:00 +7°C° 0 mm 0 mps 720 mmHg 92%
    07:00 +7°C° 0 mm 0 mps 721 mmHg 91%
    08:00 +7°C° 0 mm 0 mps 721 mmHg 91%
    09:00 +8°C° 0 mm 0 mps 722 mmHg 88%
    10:00 +11°C° 0 mm 1 mps 722 mmHg 85%
    11:00 +12°C° 0 mm 1 mps 723 mmHg 81%
    12:00 +13°C° 0 mm 1 mps 722 mmHg 80%
    13:00 +13°C° 0 mm 1 mps 722 mmHg 78%
    14:00 +14°C° 0 mm 1 mps 722 mmHg 77%
    15:00 +13°C° 0 mm 1 mps 722 mmHg 81%
    16:00 +12°C° 0 mm 1 mps 722 mmHg 85%
    17:00 +11°C° 0 mm 1 mps 722 mmHg 89%
    18:00 +10°C° 0 mm 1 mps 723 mmHg 88%
    19:00 +10°C° 0 mm 1 mps 723 mmHg 87%
    20:00 +9°C° 0 mm 1 mps 723 mmHg 86%
    21:00 +9°C° 0 mm 1 mps 724 mmHg 86%
    22:00 +9°C° 0 mm 1 mps 724 mmHg 86%
    23:00 +9°C° 0 mm 1 mps 724 mmHg 85%

    16 December, Monday

    Time Temperature Precipitation Wind Pressure Humidity
    00:00 +9°C° 0 mm 1 mps 724 mmHg 85%
    01:00 +8°C° 0 mm 1 mps 724 mmHg 84%
    02:00 +8°C° 0 mm 1 mps 724 mmHg 84%
    03:00 +8°C° 0 mm 1 mps 724 mmHg 82%
    04:00 +7°C° 0 mm 0 mps 724 mmHg 80%
    05:00 +7°C° 0 mm 0 mps 724 mmHg 79%
    06:00 +7°C° 0 mm 0 mps 725 mmHg 78%
    07:00 +7°C° 0 mm 0 mps 725 mmHg 77%
    08:00 +7°C° 0 mm 0 mps 725 mmHg 76%
    09:00 +8°C° 0 mm 0 mps 726 mmHg 74%
    10:00 +10°C° 0 mm 0 mps 726 mmHg 72%
    11:00 +12°C° 0 mm 0 mps 726 mmHg 70%
    12:00 +13°C° 0 mm 0 mps 726 mmHg 69%
    13:00 +13°C° 0 mm 0 mps 725 mmHg 68%
    14:00 +15°C° 0 mm 1 mps 725 mmHg 67%
    15:00 +14°C° 0 mm 1 mps 725 mmHg 71%
    16:00 +12°C° 0 mm 1 mps 725 mmHg 76%
    17:00 +11°C° 0 mm 1 mps 725 mmHg 80%
    18:00 +11°C° 0 mm 1 mps 725 mmHg 77%
    19:00 +10°C° 0 mm 1 mps 725 mmHg 74%
    20:00 +10°C° 0 mm 1 mps 725 mmHg 72%
    21:00 +10°C° 0 mm 1 mps 725 mmHg 71%
    22:00 +9°C° 0 mm 1 mps 725 mmHg 70%
    23:00 +9°C° 0 mm 1 mps 725 mmHg 69%
    Show more